[[{"header":{"parameterUnit":"m.s-1","parameterCategory":1,"la1":30.2991,"la2":30.254,"lo1":-89.0895,"lo2":-89.0444,"dy":0.0017,"dx":0.0017,"nx":28,"ny":28,"refTime":"2026-02-06T03:00:00:Z","depth":0,"parameterNumber":2,"parameterNumberName":"U-component_of_WINDS"},"data":[0,0,0,0,0,0,0,0,0,0,0,0,0,0,0,0,0,0,0,0,0,0,0,0,0,0,0,0,0,0,0,0,0,0,0,0,0,0,0,0,0,0,0,0,0,0,0,0,0,0,0,0,0,0,0,0,0,0,4.6494,4.6495,0,4.6613,4.6614,4.6615,4.6559,4.6555,4.6552,4.655,4.6677,4.6683,4.6689,0,0,0,0,0,0,0,0,0,0,0,0,0,4.6227,4.6232,4.6494,4.6495,4.6497,4.6612,4.6614,4.6616,4.6559,4.6555,4.6552,4.6548,4.6675,4.6682,4.669,0,0,0,0,0,0,0,0,0,0,0,0,0,4.6344,4.6234,4.6494,4.6482,4.6482,4.6612,4.6614,4.6616,4.656,4.6555,4.6551,4.6546,4.6672,4.6681,4.6691,4.684,0,0,4.6719,4.6723,0,0,0,0,0,0,0,0,4.6338,4.6354,4.6482,4.6483,4.6484,4.6566,4.6567,4.6691,4.6561,4.6531,4.6549,4.6544,4.6644,4.6655,4.6688,4.6846,4.6851,4.672,4.6726,4.673,4.6732,0,0,0,0,0,0,0,4.633,4.6349,4.6541,4.6484,4.6485,4.6474,4.6486,4.659,4.6612,4.6533,4.6529,4.6544,4.6643,4.6679,4.669,4.6853,4.672,4.6728,4.6734,4.6737,4.7147,4.7152,0,0,0,0,0,0,4.6321,4.6342,4.6537,4.6544,4.6398,4.6483,4.6496,4.6544,4.661,4.6616,4.6547,4.6541,4.6665,4.668,4.6695,4.6879,4.673,4.6738,4.6744,4.7142,4.7148,4.7154,0,0,0,0,0,0,4.6315,4.6339,4.6532,4.6442,4.6466,4.6492,4.6547,4.6549,4.6584,4.6621,4.6626,4.6579,4.6662,4.6682,4.6805,4.6882,4.6743,4.6751,4.7136,4.7144,4.7151,4.7245,0,0,0,0,0,0,4.6308,4.6337,4.6391,4.6444,4.6471,4.6639,4.6552,4.6555,4.66,4.6592,4.6652,4.6658,4.666,4.6792,4.6815,4.6893,4.6758,4.7129,4.7139,4.7149,4.7235,4.7255,4.7272,0,0,0,0,0,4.6298,4.6413,4.6394,4.6418,4.6539,4.6643,4.6659,4.6657,4.6606,4.6663,4.6688,4.6656,4.687,4.6805,4.683,4.6912,4.7124,4.7136,4.7148,4.7227,4.7251,4.7272,0,0,0,0,0,0,4.6369,4.6419,4.6399,4.6533,4.6584,4.6633,4.6704,4.6682,4.675,4.674,4.6737,4.6752,4.6881,4.6908,4.6835,4.7064,4.699,4.7007,4.7041,4.7065,4.7083,4.7075,4.6766,0,0,0,0,0,4.64,4.6477,4.6518,4.6632,4.6659,4.6678,4.6723,4.6718,4.6771,4.6793,4.6826,4.6881,4.6961,4.7014,4.7089,4.7239,4.7254,4.7308,4.7327,4.7342,4.7358,4.7445,4.7472,4.7193,4.7193,4.7193,0,0,4.6464,4.6502,4.6551,4.6648,4.6686,4.6771,4.6696,4.6786,4.685,4.6807,4.6927,4.6954,4.7015,4.7155,4.7217,4.7182,4.7438,4.7357,4.7368,4.7377,4.746,4.7487,4.751,4.7201,4.72,4.7198,0,0,4.6627,4.666,4.6762,4.6804,4.6864,4.6876,4.6901,4.6955,4.6971,4.7091,4.7062,4.7139,4.7275,4.7323,4.7364,4.7551,4.7526,4.7576,4.7673,4.7759,4.7781,4.78,4.7872,4.7897,4.7591,4.7591,4.7591,0,4.67,4.6823,4.6818,4.6913,4.6959,4.6923,4.703,4.7071,4.7153,4.7187,4.7145,4.732,4.7358,4.7511,4.7557,4.759,4.7623,4.7569,4.7777,4.7797,4.7815,4.7884,4.791,4.7597,4.7596,4.7596,4.7595,0,4.6914,4.7,4.7076,4.7157,4.7211,4.7311,4.7325,4.7382,4.7373,4.7392,4.7518,4.7564,4.7651,4.7686,4.7678,4.784,4.7817,4.7776,4.7702,4.7848,4.7913,4.7938,4.7606,4.7603,4.7602,4.76,0,0,4.7121,4.7202,4.723,4.7269,4.7335,4.7404,4.7505,4.7589,4.764,4.7699,4.7787,4.7906,4.7871,4.7919,4.7916,4.7991,4.8143,4.7942,4.7944,4.7982,4.8331,4.8363,4.8393,4.8126,4.8131,4.8135,4.8327,0,4.7292,4.7467,4.7468,4.7631,4.7714,4.7684,4.7773,4.7826,4.7847,4.7923,4.7947,4.8034,4.7978,4.8007,4.808,4.8109,4.8214,4.8095,4.8213,4.8217,4.8201,4.8426,4.8459,4.8639,4.8352,4.8356,4.8359,0,4.7513,4.7581,4.7752,4.7812,4.7847,4.7926,4.8007,4.8079,4.814,4.8151,4.8207,4.8195,4.8303,4.8225,4.8376,4.8296,4.8344,4.8367,4.8374,4.8387,4.8299,4.845,4.8695,4.8724,4.8398,4.8395,4.8392,0,4.7654,4.7788,4.7909,4.7943,4.8014,4.8072,4.8105,4.8161,4.8214,4.8285,4.8321,4.8404,4.845,4.8517,4.853,4.8471,4.8685,4.8605,4.87,4.8701,4.8748,4.8746,4.9009,4.8774,4.8773,4.8773,4.8772,0,4.7846,4.7953,4.7974,4.8049,4.817,4.8173,4.8294,4.8322,4.8374,4.8457,4.8436,4.8515,4.8526,4.8609,4.862,4.8747,4.8767,4.8782,4.8785,4.8786,4.8785,4.882,4.8809,4.878,4.8779,4.8777,4.8776,0,4.8023,4.8041,4.8172,4.823,4.8248,4.8335,4.8387,4.8461,4.8481,4.8587,4.8612,4.8645,4.8743,4.8762,4.8877,4.8884,4.9038,4.9026,4.9017,4.9017,4.9113,4.9105,4.941,4.9453,4.9187,4.9189,4.9191,0,4.8146,4.8228,4.8296,4.835,4.8386,4.8473,4.8528,4.8535,4.8593,4.8672,4.8739,4.8834,4.891,4.9068,4.9105,4.9194,4.9187,4.9288,4.92,4.9201,4.9194,4.919,4.9201,4.9305,4.9308,4.931,4.9312,0,4.8364,4.837,4.8448,4.8532,4.8598,4.8664,4.8727,4.8773,4.8789,4.8857,4.8956,4.9016,4.9135,4.9232,4.9322,4.936,4.9342,4.934,4.9367,4.9371,4.9365,4.9374,4.9067,4.9333,4.9331,4.9329,4.9328,4.9327,4.8521,4.8595,4.8656,4.8746,4.8794,4.8855,4.8929,4.896,4.9043,4.914,4.9139,4.925,4.9315,4.9435,4.9478,4.9568,4.9536,4.9575,4.9585,4.9596,4.9607,4.9348,4.9584,4.9583,4.9582,4.9582,4.9582,0,4.8741,4.878,4.8863,4.8953,4.9025,4.9,4.907,4.9133,4.923,4.9292,4.9368,4.9486,4.9582,4.9627,4.9722,4.9785,4.9779,4.981,4.9807,4.9818,4.9627,4.9596,4.9814,4.9814,4.9814,4.9813,4.9813,4.9813,4.8865,4.8991,4.9005,4.9157,4.9196,4.9303,4.9346,4.9404,4.9454,4.9586,4.9665,4.9693,4.9751,4.985,4.9939,4.995,4.9988,5.0024,5.0032,4.9853,4.983,4.9808,4.9778,5.0031,5.0031,5.0215,5.0217,5.0218]},{"header":{"parameterUnit":"m.s-1","parameterCategory":1,"la1":30.2991,"la2":30.254,"lo1":-89.0895,"lo2":-89.0444,"dy":0.0017,"dx":0.0017,"nx":28,"ny":28,"refTime":"2026-02-06T03:00:00:Z","depth":0,"parameterNumber":3,"parameterNumberName":"V-component_of_WINDS"},"data":[0,0,0,0,0,0,0,0,0,0,0,0,0,0,0,0,0,0,0,0,0,0,0,0,0,0,0,0,0,0,0,0,0,0,0,0,0,0,0,0,0,0,0,0,0,0,0,0,0,0,0,0,0,0,0,0,0,0,1.6291,1.6293,0,1.6398,1.6399,1.6401,1.6424,1.6423,1.6422,1.6421,1.653,1.6533,1.6537,0,0,0,0,0,0,0,0,0,0,0,0,0,1.6105,1.6108,1.6291,1.6293,1.6294,1.6398,1.6399,1.6401,1.6424,1.6423,1.6422,1.6421,1.6529,1.6533,1.6537,0,0,0,0,0,0,0,0,0,0,0,0,0,1.6196,1.6109,1.6291,1.6318,1.6321,1.6398,1.6399,1.6401,1.6424,1.6423,1.6422,1.6421,1.6527,1.6532,1.6538,1.6594,0,0,1.6554,1.6557,0,0,0,0,0,0,0,0,1.6191,1.6203,1.6313,1.6316,1.632,1.6396,1.6373,1.6466,1.6424,1.6385,1.6421,1.642,1.6486,1.6495,1.6518,1.66,1.6604,1.6555,1.6558,1.656,1.6562,0,0,0,0,0,0,0,1.6185,1.6198,1.6334,1.6314,1.6319,1.6324,1.6336,1.6391,1.6441,1.6388,1.639,1.6403,1.6488,1.6512,1.652,1.6606,1.6555,1.6559,1.6563,1.6565,1.6737,1.6738,0,0,0,0,0,0,1.6174,1.6193,1.633,1.6337,1.6251,1.6328,1.6341,1.6373,1.644,1.6449,1.6404,1.6403,1.6504,1.6514,1.6524,1.6593,1.656,1.6565,1.6568,1.6736,1.6737,1.6739,0,0,0,0,0,0,1.617,1.6186,1.6326,1.6265,1.6284,1.6333,1.6368,1.6376,1.64,1.6452,1.6461,1.6419,1.6503,1.6517,1.6576,1.6598,1.6568,1.6573,1.6734,1.6736,1.6738,1.6733,0,0,0,0,0,0,1.6164,1.6184,1.6207,1.6266,1.6287,1.6377,1.637,1.6379,1.6409,1.641,1.6469,1.6477,1.6503,1.6568,1.6582,1.6604,1.6577,1.6732,1.6735,1.6737,1.6732,1.6735,1.6737,0,0,0,0,0,1.6157,1.6202,1.6208,1.6224,1.6316,1.6378,1.639,1.6419,1.6411,1.6434,1.6467,1.6476,1.6593,1.6574,1.659,1.6614,1.6731,1.6734,1.6737,1.673,1.6734,1.6737,0,0,0,0,0,0,1.6144,1.621,1.6218,1.6282,1.6324,1.6382,1.6412,1.6423,1.6468,1.6467,1.65,1.6513,1.6571,1.6599,1.6576,1.6671,1.6662,1.6668,1.6651,1.6655,1.6658,1.665,1.6581,0,0,0,0,0,1.6149,1.6194,1.6249,1.6301,1.6321,1.6363,1.6391,1.6409,1.6454,1.6472,1.651,1.6552,1.6598,1.6628,1.6674,1.6736,1.6748,1.676,1.6763,1.6765,1.677,1.6802,1.6808,1.6748,1.6748,1.6748,0,0,1.6159,1.62,1.6227,1.6299,1.6334,1.6379,1.6378,1.6426,1.646,1.648,1.6538,1.6567,1.6616,1.6677,1.6705,1.6702,1.6789,1.6769,1.677,1.6774,1.6806,1.6812,1.6817,1.675,1.675,1.675,0,0,1.62,1.6237,1.6283,1.6317,1.637,1.6397,1.6408,1.6463,1.6483,1.6542,1.6557,1.6597,1.6677,1.6711,1.6739,1.679,1.68,1.6804,1.6819,1.6851,1.6855,1.686,1.6876,1.6882,1.6809,1.6809,1.6809,0,1.6206,1.6275,1.6305,1.6352,1.6383,1.6402,1.6449,1.6481,1.6545,1.6565,1.656,1.6659,1.6694,1.6762,1.6774,1.6797,1.6809,1.6798,1.6852,1.6857,1.6861,1.6878,1.6884,1.6809,1.6809,1.6809,1.6809,0,1.6279,1.6326,1.6357,1.6419,1.6453,1.6499,1.6535,1.6566,1.6581,1.6607,1.6666,1.6709,1.6762,1.678,1.6795,1.6849,1.6845,1.6846,1.6837,1.6867,1.6883,1.6889,1.6809,1.6809,1.6809,1.6809,0,0,1.6316,1.6392,1.6403,1.643,1.6488,1.6525,1.6572,1.6624,1.6649,1.6692,1.6731,1.6797,1.6797,1.6829,1.6848,1.6876,1.6911,1.6873,1.6874,1.6877,1.6971,1.697,1.6977,1.6918,1.6919,1.692,1.6966,0,1.6363,1.6448,1.6475,1.6545,1.6588,1.6606,1.6646,1.6686,1.6712,1.6751,1.678,1.6825,1.6823,1.6842,1.687,1.6901,1.693,1.6898,1.6953,1.6955,1.6939,1.6985,1.6984,1.7026,1.6973,1.6974,1.6975,0,1.643,1.6474,1.6548,1.6599,1.6619,1.6654,1.6703,1.6742,1.6786,1.6803,1.6836,1.6853,1.69,1.6888,1.6953,1.6931,1.6954,1.6973,1.6975,1.6981,1.6966,1.6991,1.704,1.7046,1.6985,1.6985,1.6984,0,1.6448,1.6526,1.658,1.6603,1.6664,1.6688,1.6715,1.6758,1.6787,1.683,1.6848,1.6896,1.6922,1.6957,1.6985,1.6974,1.7047,1.7038,1.7061,1.706,1.7076,1.7074,1.7128,1.7092,1.7092,1.7092,1.7092,0,1.6498,1.6542,1.6588,1.6621,1.6671,1.6701,1.6749,1.6776,1.6814,1.6852,1.687,1.6905,1.694,1.6979,1.7001,1.705,1.7062,1.7076,1.7081,1.7074,1.7072,1.709,1.7087,1.7093,1.7093,1.7093,1.7092,0,1.6527,1.6559,1.6619,1.6672,1.6686,1.672,1.6764,1.6796,1.6822,1.687,1.6882,1.6923,1.6969,1.7001,1.706,1.7075,1.7128,1.7133,1.7113,1.7116,1.7137,1.7134,1.7204,1.7214,1.7171,1.7172,1.7172,0,1.6556,1.659,1.6646,1.6673,1.67,1.6743,1.6772,1.6802,1.6832,1.6884,1.6909,1.6957,1.6996,1.7069,1.7103,1.7148,1.7154,1.7175,1.7161,1.7152,1.7153,1.715,1.7153,1.7177,1.7178,1.7178,1.7178,0,1.6604,1.6618,1.6661,1.6708,1.6742,1.6781,1.682,1.684,1.6877,1.6909,1.6957,1.6987,1.7047,1.7094,1.7142,1.7168,1.7179,1.7182,1.719,1.7183,1.7169,1.7176,1.7118,1.7181,1.7181,1.718,1.718,1.718,1.6634,1.6664,1.6708,1.6754,1.6786,1.6821,1.6853,1.6883,1.6923,1.6975,1.699,1.7039,1.708,1.7145,1.7172,1.721,1.7208,1.7219,1.7222,1.7224,1.7223,1.7164,1.7219,1.7219,1.7219,1.7219,1.7219,0,1.6682,1.6711,1.6752,1.6805,1.6841,1.6848,1.6891,1.6919,1.6963,1.7,1.7039,1.7092,1.7137,1.7174,1.7219,1.7242,1.7248,1.7253,1.7252,1.7257,1.7223,1.7212,1.7247,1.7247,1.7247,1.7247,1.7247,1.7247,1.6711,1.6763,1.6782,1.6849,1.6877,1.6926,1.6949,1.6981,1.7011,1.707,1.7107,1.7131,1.7168,1.7216,1.7256,1.7266,1.7281,1.7285,1.7295,1.7263,1.726,1.7256,1.7246,1.7288,1.7288,1.7326,1.7326,1.7326]}]]